COSMOS 1275 DEB

Satellite information

Favourite Embed

Satellite Type and Status

DEBRISIN ORBIT

Key statistics

Satellite COSMOS 1275 DEB at a glance.

Uptime

16158

Days in orbit

Revolutions

≈ 14.3

Per day

Orbit

LEO

Low Earth Orbit

Inclination

82.9

Latest

Satellite identification and parameters

Extended collection of information and parameters for COSMOS 1275 DEB.

Object identification

Identified? True

Debris? True

Object name: COSMOS 1275 DEB

International designator: 1981-053BX

Object number (NORAD): 12730

Object ID (CCSDS): 12730

Country: COMMONWEALTH OF INDEPENDENT STATES (CIS)

Current information (Y/N): Y

RCS size: MEDIUM

Orbital parameters

Period: 100.456 minutes

Inclination: 82.9352 deg

SMA: 7158.335 km

Apoapsis: 789.058 km

Periapsis: 771.342 km

RAAN: 251.3391 deg

Eccentricy: 0.00123748

Argument of periapsis: 262.5926 deg

Mean anomaly: 217.0136 deg

Mean motion: 14.33457184 rev/day

Mean motion (dot): 0.00004891 rev/day2

B* drag term: 0.0017639393 1/REarth

Two-line elements (TLE)

Creation date: Aug. 30, 2025, 3:38 a.m.

Reference frame: TEME

Reference center: EARTH

Epoch: Aug. 29, 2025, 7:01 p.m. UTC

TLE line 0: 0 COSMOS 1275 DEB

TLE line 1: 1 12730U 81053BX 25241.79283630 .00004891 00000-0 17639-2 0 9992

TLE line 2: 2 12730 82.9352 251.3391 0012375 262.5926 217.0136 14.33457184255314

Live tracking on map

Real-time ground track for satellite COSMOS 1275 DEB.

In-orbit conjunctions

A list of the most updated potential collisions computed for object COSMOS 1275 DEB.

Target Orbit TCA Probability of collision Miss distance Type
SL-8 R/B LEO 2025-06-17 09:50:02 0.0002550337 503.0 (m) ROCKET BODY
NOAA 16 DEB SSO 2025-04-08 11:11:43 0.0001921993 101.0 (m) DEBRIS
CZ-6A DEB LEO 2025-02-24 11:45:25 0.0001020407 371.0 (m) DEBRIS
CZ-6A DEB LEO 2024-12-25 21:22:31 0.0001275561 64.0 (m) DEBRIS
KITSAT B SSO 2024-10-06 23:26:10 0.0004506324 228.0 (m) PAYLOAD

Associated space launch

Navigation satellite providing location information for the Tsiklon-B navigation system

COSMOS 1275 DEB was lifted into orbit during the mission ‘Kosmos-3M | Parus 27’, on board a Kosmos-3M space rocket.

The launch took place on June 4, 1981, 3:41 p.m. from 132/2.

For more information about the launch, click the button.

Launch to space Kosmos-3M | Parus 27
Kosmos-3M | Parus 27

Agency: N/A

Status: Launch Successful

Launch date: June 4, 1981, 3:41 p.m. UTC

Rocket: Kosmos-3M

Launch pad: 132/2

Location: Plesetsk Cosmodrome, Russian Federation

...

Latest news about this satellite

There are no fresh news available about this satellite. Check back as we update our databases every day.


Newsletter sign-up

Weekly statistics, charts and insights to help you stay on top of the space industry.